DW3390 Weather Reports


Display with metric or nautical units.
time (UTC)temp
F
wind
direction
speed
MPH
gust
MPH
rain 1hr
in
rain 24hr
in
rain mn
in
humidity
%
barometer
mb
20260507123047 58 146 0.0 3.0 0.00 0.00 0.00 52 1013.6
20260507122546 58 172 0.0 0.0 0.00 0.00 0.00 52 1013.6
20260507122048 58 219 0.0 3.0 0.00 0.00 0.00 52 1013.6
20260507121552 59 219 0.0 3.0 0.00 0.00 0.00 51 1013.6
20260507121045 59 132 0.0 3.0 0.00 0.00 0.00 52 1013.6
20260507120545 59 161 0.0 2.0 0.00 0.00 0.00 53 1013.7
20260507120045 59 146 0.0 3.0 0.00 0.00 0.00 52 1013.7
20260507115544 60 192 0.0 3.0 0.00 0.00 0.00 53 1013.7
20260507115042 59 260 0.0 1.0 0.00 0.00 0.00 52 1013.7
20260507114541 59 64 0.0 1.0 0.00 0.00 0.00 53 1013.8
20260507114040 58 153 0.0 1.0 0.00 0.00 0.00 55 1013.7
20260507113542 58 60 0.0 5.0 0.00 0.00 0.00 54 1013.8
20260507113042 58 159 0.0 5.0 0.00 0.00 0.00 53 1013.8
20260507112542 58 159 0.0 1.0 0.00 0.00 0.00 54 1013.8
20260507112040 58 243 0.0 0.0 0.00 0.00 0.00 56 1013.9
20260507111536 57 246 0.0 2.0 0.00 0.00 0.00 53 1013.9
20260507111034 57 70 0.0 2.0 0.00 0.00 0.00 54 1014.0
20260507110533 57 111 0.0 2.0 0.00 0.00 0.00 56 1014.0
20260507110032 57 52 0.0 2.0 0.00 0.00 0.00 57 1014.1
20260507105531 57 36 0.0 6.0 0.00 0.00 0.00 58 1014.0
20260507105030 57 81 0.0 2.0 0.00 0.00 0.00 52 1014.0
20260507104531 57 124 0.0 2.0 0.00 0.00 0.00 55 1014.1
20260507104029 57 130 0.0 2.0 0.00 0.00 0.00 56 1014.1
20260507103532 56 140 0.0 2.0 0.00 0.00 0.00 58 1014.1
20260507103031 56 28 0.0 2.0 0.00 0.00 0.00 60 1014.2
20260507102526 55 132 0.0 1.0 0.00 0.00 0.00 60 1014.1
20260507102024 55 108 0.0 2.0 0.00 0.00 0.00 61 1014.2
20260507101523 55 55 0.0 3.0 0.00 0.00 0.00 66 1014.2
20260507101024 55 165 0.0 3.0 0.00 0.00 0.00 65 1014.2
20260507100520 54 178 0.0 3.0 0.00 0.00 0.00 65 1014.2
20260507100019 54 154 0.0 7.0 0.00 0.00 0.00 67 1014.2
20260507095519 54 53 0.0 7.0 0.00 0.00 0.00 69 1014.3
20260507095018 54 141 0.0 4.0 0.00 0.00 0.00 71 1014.2
20260507094517 53 241 0.0 2.0 0.00 0.00 0.00 74 1014.2
20260507094015 53 162 0.0 3.0 0.00 0.00 0.00 74 1014.3
20260507093517 52 150 0.0 4.0 0.00 0.00 0.00 73 1014.3
20260507093015 52 146 0.0 4.0 0.00 0.00 0.00 73 1014.3
20260507092511 52 227 0.0 3.0 0.00 0.00 0.00 75 1014.3
20260507092011 51 209 0.0 5.0 0.00 0.00 0.00 76 1014.3
20260507091510 51 147 0.0 3.0 0.00 0.00 0.00 77 1014.3
20260507091009 51 215 0.0 3.0 0.00 0.00 0.00 77 1014.4
20260507090507 51 194 0.0 3.0 0.00 0.00 0.00 78 1014.3
20260507090006 51 188 0.0 2.0 0.00 0.00 0.00 80 1014.3
20260507085505 50 25 0.0 5.0 0.00 0.00 0.00 80 1014.3
20260507085007 50 275 1.0 5.0 0.00 0.00 0.00 81 1014.4
20260507084510 49 130 0.0 4.0 0.00 0.00 0.00 82 1014.4
20260507084001 49 140 0.0 4.0 0.00 0.00 0.00 84 1014.5
20260507083601 48 271 0.0 3.0 0.00 0.00 0.00 85 1014.4
20260507083058 48 269 0.0 4.0 0.00 0.00 0.00 85 1014.4
20260507082556 48 239 1.0 4.0 0.00 0.00 0.00 86 1014.4
20260507082055 47 142 0.0 2.0 0.00 0.00 0.00 88 1014.4
20260507081558 47 140 0.0 3.0 0.00 0.00 0.00 88 1014.4
20260507081053 46 140 0.0 4.0 0.00 0.00 0.00 89 1014.4
20260507080553 46 144 0.0 4.0 0.00 0.00 0.00 90 1014.4
20260507080054 46 143 1.0 4.0 0.00 0.00 0.00 90 1014.3
20260507075550 46 154 1.0 4.0 0.00 0.00 0.00 91 1014.4
20260507075049 45 155 1.0 4.0 0.00 0.00 0.00 92 1014.4
20260507074548 45 59 0.0 3.0 0.00 0.00 0.00 94 1014.4
20260507074046 44 180 0.0 3.0 0.00 0.00 0.00 94 1014.3
20260507073546 44 205 0.0 2.0 0.00 0.00 0.00 94 1014.3
20260507073045 44 200 0.0 0.0 0.00 0.00 0.00 94 1014.3
20260507072544 44 200 0.0 0.0 0.00 0.00 0.00 94 1014.3
20260507072043 44 200 0.0 1.0 0.00 0.00 0.00 93 1014.3
20260507071545 44 200 0.0 2.0 0.00 0.00 0.00 94 1014.2
20260507071042 43 200 0.0 2.0 0.00 0.00 0.00 94 1014.3
20260507070541 43 202 0.0 3.0 0.00 0.00 0.00 94 1014.2
20260507070059 43 202 0.0 3.0 0.00 0.00 0.00 94 1014.2
20260507065540 43 143 0.0 3.0 0.00 0.00 0.00 94 1014.2
20260507065038 43 144 0.0 3.0 0.00 0.00 0.00 94 1014.2
20260507064548 43 143 0.0 2.0 0.00 0.00 0.00 94 1014.1
20260507064037 43 142 0.0 3.0 0.00 0.00 0.00 94 1014.2
20260507063537 42 142 1.0 3.0 0.00 0.00 0.00 94 1014.2
20260507063037 42 154 0.0 2.0 0.00 0.00 0.00 94 1014.1
20260507062535 42 165 0.0 3.0 0.00 0.00 0.00 94 1014.1
20260507062035 42 165 1.0 3.0 0.00 0.00 0.00 94 1014.1
20260507061535 42 154 1.0 3.0 0.00 0.00 0.00 94 1014.0
20260507061033 42 150 0.0 2.0 0.00 0.00 0.00 94 1014.0
20260507060533 42 150 0.0 2.0 0.00 0.00 0.00 95 1013.9
20260507060034 42 140 0.0 1.0 0.00 0.00 0.00 95 1013.9
20260507055532 42 140 0.0 1.0 0.00 0.00 0.00 95 1013.9
20260507055031 42 140 0.0 2.0 0.00 0.00 0.00 95 1013.9
20260507054532 41 140 0.0 2.0 0.00 0.00 0.00 95 1013.8
20260507054031 41 140 0.0 2.0 0.00 0.00 0.00 95 1013.8
20260507053528 40 140 0.0 2.0 0.00 0.00 0.00 95 1013.8
20260507053027 40 140 0.0 2.0 0.00 0.00 0.00 95 1013.9
20260507052526 39 118 0.0 2.0 0.00 0.00 0.00 95 1013.9
20260507052026 39 116 0.0 2.0 0.00 0.00 0.00 95 1013.9
20260507051525 38 58 0.0 0.0 0.00 0.00 0.00 95 1013.9
20260507051025 38 58 0.0 0.0 0.00 0.00 0.00 94 1013.8
20260507050523 38 58 0.0 0.0 0.00 0.00 0.00 94 1013.8
20260507050038 38 58 0.0 0.0 0.00 0.00 0.00 94 1013.8
20260507045523 38 58 0.0 0.0 0.00 0.00 0.00 93 1013.7
20260507045024 38 58 0.0 0.0 0.00 0.00 0.00 94 1013.7
20260507044523 38 58 0.0 0.0 0.00 0.00 0.00 93 1013.6
20260507044021 38 58 0.0 0.0 0.00 0.00 0.00 93 1013.6
20260507043521 38 58 0.0 0.0 0.00 0.00 0.00 93 1013.6
20260507043021 38 58 0.0 0.0 0.00 0.00 0.00 93 1013.6
20260507042520 38 58 0.0 0.0 0.00 0.00 0.00 93 1013.6
20260507042020 38 58 0.0 0.0 0.00 0.00 0.00 93 1013.6
20260507041520 38 58 0.0 0.0 0.00 0.00 0.00 93 1013.6
20260507041020 38 58 0.0 0.0 0.00 0.00 0.00 93 1013.6
20260507040519 38 58 0.0 0.0 0.00 0.00 0.00 93 1013.5
20260507040019 38 58 0.0 0.0 0.00 0.00 0.00 93 1013.5
20260507035519 38 58 0.0 0.0 0.00 0.00 0.00 93 1013.5
20260507035018 38 58 0.0 0.0 0.00 0.00 0.00 92 1013.5
20260507034521 38 58 0.0 0.0 0.00 0.00 0.00 92 1013.5
20260507034017 39 58 0.0 0.0 0.00 0.00 0.00 92 1013.6
20260507033517 39 58 0.0 0.0 0.00 0.00 0.00 93 1013.6
20260507033018 39 58 0.0 0.0 0.00 0.00 0.00 93 1013.5
20260507032515 39 59 0.0 0.0 0.00 0.00 0.00 94 1013.5
20260507032015 39 59 0.0 0.0 0.00 0.00 0.00 94 1013.5
20260507031516 39 59 0.0 0.0 0.00 0.00 0.00 94 1013.5
20260507031020 39 59 0.0 0.0 0.00 0.00 0.00 93 1013.6
20260507030515 38 59 0.0 0.0 0.00 0.00 0.00 93 1013.5
20260507030017 38 59 0.0 0.0 0.00 0.00 0.00 93 1013.5
20260507025514 38 59 0.0 0.0 0.00 0.00 0.00 93 1013.5
20260507025015 38 59 0.0 0.0 0.00 0.00 0.00 92 1013.6
20260507024515 38 59 0.0 0.0 0.00 0.00 0.00 92 1013.4
20260507024014 38 59 0.0 0.0 0.00 0.00 0.00 92 1013.5
20260507023515 39 59 0.0 0.0 0.00 0.00 0.00 92 1013.5
20260507023012 39 59 0.0 0.0 0.00 0.00 0.00 92 1013.4
20260507022512 39 59 0.0 0.0 0.00 0.00 0.00 92 1013.5
20260507022013 39 59 0.0 0.0 0.00 0.00 0.00 92 1013.4
20260507021511 39 59 0.0 0.0 0.00 0.00 0.00 92 1013.4
20260507021011 39 59 0.0 0.0 0.00 0.00 0.00 92 1013.5
20260507020511 39 59 0.0 0.0 0.00 0.00 0.00 92 1013.5
20260507020011 39 59 0.0 0.0 0.00 0.00 0.00 92 1013.5
20260507015510 39 59 0.0 1.0 0.00 0.00 0.00 92 1013.5
20260507015014 39 59 0.0 1.0 0.00 0.00 0.00 92 1013.5
20260507014510 39 59 0.0 0.0 0.00 0.00 0.00 91 1013.5
20260507014009 39 59 0.0 0.0 0.00 0.00 0.00 91 1013.6
20260507013508 39 59 0.0 0.0 0.00 0.00 0.00 91 1013.5
20260507013007 39 59 0.0 0.0 0.00 0.00 0.00 91 1013.6
20260507012507 39 59 0.0 0.0 0.00 0.00 0.00 91 1013.5
20260507012006 40 59 0.0 0.0 0.00 0.00 0.00 91 1013.6
20260507011506 40 59 0.0 0.0 0.00 0.00 0.00 91 1013.6
20260507011005 40 59 0.0 0.0 0.00 0.00 0.00 91 1013.7
20260507010509 40 59 0.0 0.0 0.00 0.00 0.00 91 1013.7
20260507010007 40 59 0.0 0.0 0.00 0.00 0.00 91 1013.6
20260507005505 40 59 0.0 0.0 0.00 0.00 0.00 91 1013.6
20260507005003 40 59 0.0 0.0 0.00 0.00 0.00 90 1013.6
20260507004504 40 59 0.0 0.0 0.00 0.00 0.00 90 1013.6
20260507004003 40 59 0.0 0.0 0.00 0.00 0.00 90 1013.7
20260507003501 41 59 0.0 0.0 0.00 0.00 0.00 90 1013.6
20260507003001 41 59 0.0 0.0 0.00 0.00 0.00 91 1013.7
20260507002501 41 59 0.0 2.0 0.00 0.00 0.00 90 1013.7
20260507002002 41 59 0.0 2.0 0.00 0.00 0.00 91 1013.7
20260507001500 41 60 0.0 2.0 0.00 0.00 0.00 91 1013.7
20260507001103 41 61 0.0 3.0 0.00 0.00 0.00 91 1013.8
20260507000603 41 40 1.0 3.0 0.00 0.00 0.00 91 1013.9
20260507000124 41 47 0.0 2.0 0.00 0.00 0.00 91 1013.9
20260506235600 41 60 0.0 0.0 0.00 0.00 0.00 91 1013.8
20260506235102 41 60 0.0 2.0 0.00 0.00 0.00 91 1013.7
20260506234621 41 45 0.0 4.0 0.00 0.00 0.00 91 1013.8
20260506234058 41 53 0.0 3.0 0.00 0.00 0.00 91 1013.7
20260506233559 41 55 0.0 3.0 0.00 0.00 0.00 91 1013.7
20260506233056 41 77 0.0 0.0 0.00 0.00 0.00 90 1013.7
20260506232556 41 77 0.0 0.0 0.00 0.00 0.00 90 1013.7
20260506232055 41 77 0.0 0.0 0.00 0.00 0.00 89 1013.7
20260506231555 41 77 0.0 0.0 0.00 0.00 0.00 89 1013.7
20260506231055 41 77 0.0 0.0 0.00 0.00 0.00 89 1013.7
20260506230553 41 77 0.0 0.0 0.00 0.00 0.00 89 1013.6
20260506225553 41 79 0.0 0.0 0.00 0.00 0.00 89 1013.6
20260506225053 41 80 0.0 1.0 0.00 0.00 0.00 89 1013.6
20260506224553 41 85 0.0 0.0 0.00 0.00 0.00 88 1013.6
20260506224051 42 85 0.0 0.0 0.00 0.00 0.00 88 1013.6
20260506223551 42 85 0.0 0.0 0.00 0.00 0.00 88 1013.6
20260506223051 42 85 0.0 0.0 0.00 0.00 0.00 88 1013.6
20260506222554 42 85 0.0 0.0 0.00 0.00 0.00 88 1013.5
20260506222049 42 85 0.0 0.0 0.00 0.00 0.00 88 1013.6
20260506221556 42 90 0.0 0.0 0.00 0.00 0.00 87 1013.5
20260506221047 42 90 0.0 0.0 0.00 0.00 0.00 87 1013.5
20260506220547 42 90 0.0 0.0 0.00 0.00 0.00 87 1013.4
20260506220048 43 90 0.0 0.0 0.00 0.00 0.00 87 1013.4
20260506215546 43 91 0.0 2.0 0.00 0.00 0.00 88 1013.4
20260506215046 43 57 0.0 3.0 0.00 0.00 0.00 87 1013.3
20260506214546 43 43 1.0 3.0 0.00 0.00 0.00 87 1013.4
20260506214046 43 45 0.0 3.0 0.00 0.00 0.00 87 1013.4
20260506213548 43 59 1.0 4.0 0.00 0.00 0.00 87 1013.4
20260506213053 43 57 2.0 4.0 0.00 0.00 0.00 87 1013.4
20260506212545 43 55 1.0 4.0 0.00 0.00 0.00 86 1013.4
20260506212044 43 40 1.0 4.0 0.00 0.00 0.00 86 1013.4
20260506211551 43 57 1.0 4.0 0.00 0.00 0.00 86 1013.3
20260506211043 43 43 0.0 3.0 0.00 0.00 0.00 86 1013.3
20260506210546 43 51 1.0 3.0 0.00 0.00 0.00 85 1013.2
20260506210047 44 74 1.0 4.0 0.00 0.00 0.00 85 1013.2
20260506205543 44 70 1.0 4.0 0.00 0.00 0.00 85 1013.1
20260506205041 44 58 2.0 4.0 0.00 0.00 0.00 85 1013.1
20260506204541 44 65 2.0 4.0 0.00 0.00 0.00 85 1013.1
20260506204040 44 75 2.0 6.0 0.00 0.00 0.00 85 1013.0
20260506203540 44 76 3.0 6.0 0.00 0.00 0.00 84 1013.1
20260506203041 44 55 1.0 4.0 0.00 0.00 0.00 84 1013.0
20260506202539 44 32 1.0 5.0 0.00 0.00 0.00 84 1013.0
20260506202042 45 42 2.0 9.0 0.00 0.00 0.00 84 1013.0
20260506201540 45 48 3.0 9.0 0.00 0.00 0.00 83 1013.0
20260506201040 45 42 1.0 6.0 0.00 0.00 0.00 83 1013.0
20260506200538 45 40 2.0 6.0 0.00 0.00 0.00 82 1012.9
20260506200038 45 51 2.0 6.0 0.00 0.00 0.00 82 1012.9
20260506195537 46 60 2.0 8.0 0.00 0.00 0.00 82 1012.9
20260506195038 46 59 3.0 8.0 0.00 0.00 0.00 81 1012.8
20260506194540 46 54 2.0 7.0 0.00 0.00 0.00 80 1012.8
20260506194035 46 32 2.0 9.0 0.00 0.00 0.00 80 1012.7
20260506193535 46 45 3.0 10.0 0.00 0.00 0.00 80 1012.6
20260506193045 47 53 5.0 10.0 0.00 0.00 0.00 79 1012.4
20260506192534 47 53 2.0 11.0 0.00 0.00 0.00 79 1012.5
20260506192035 48 49 5.0 10.0 0.00 0.00 0.00 78 1012.5
20260506191534 48 59 4.0 10.0 0.00 0.00 0.00 76 1012.5
20260506191033 48 16 4.0 10.0 0.00 0.00 0.00 76 1012.5
20260506190534 49 71 3.0 10.0 0.00 0.00 0.00 75 1012.4
20260506190033 49 72 4.0 9.0 0.00 0.00 0.00 75 1012.4
20260506185533 49 54 3.0 8.0 0.00 0.00 0.00 74 1012.4
20260506185034 49 27 3.0 10.0 0.00 0.00 0.00 74 1012.5
20260506184537 49 24 2.0 10.0 0.00 0.00 0.00 73 1012.5
20260506184033 49 77 2.0 9.0 0.00 0.00 0.00 72 1012.4
20260506183533 49 53 3.0 9.0 0.00 0.00 0.00 72 1012.4
20260506183033 49 67 3.0 8.0 0.00 0.00 0.00 72 1012.4
20260506182531 50 74 2.0 9.0 0.00 0.00 0.00 72 1012.3
20260506182031 50 73 4.0 9.0 0.00 0.00 0.00 71 1012.3
20260506181541 50 51 4.0 9.0 0.00 0.00 0.00 69 1012.2
20260506181031 50 72 5.0 9.0 0.00 0.00 0.00 68 1012.1
20260506180531 51 58 4.0 10.0 0.00 0.00 0.00 68 1012.1
20260506180032 51 61 4.0 9.0 0.00 0.00 0.00 68 1012.1
20260506175531 51 36 2.0 11.0 0.00 0.00 0.00 68 1012.0
20260506175030 51 46 3.0 11.0 0.00 0.00 0.00 68 1012.0
20260506174535 50 53 4.0 9.0 0.00 0.00 0.00 68 1011.9
20260506174035 50 62 3.0 9.0 0.00 0.00 0.00 68 1011.9
20260506173532 50 59 4.0 9.0 0.00 0.00 0.00 68 1011.9
20260506173050 51 51 2.0 7.0 0.00 0.00 0.00 68 1011.9
20260506172529 51 66 4.0 10.0 0.00 0.00 0.00 67 1011.8
20260506172029 51 51 4.0 10.0 0.00 0.00 0.00 66 1011.8
20260506171538 51 53 4.0 10.0 0.00 0.00 0.00 66 1011.8
20260506171029 51 59 4.0 8.0 0.00 0.00 0.00 66 1011.8
20260506170530 51 22 3.0 10.0 0.00 0.00 0.00 66 1011.7
20260506170042 52 47 5.0 8.0 0.00 0.00 0.00 65 1011.7
20260506165529 52 39 3.0 11.0 0.00 0.00 0.00 63 1011.7
20260506165030 52 61 4.0 9.0 0.00 0.00 0.00 60 1011.7
20260506164528 52 33 4.0 11.0 0.00 0.00 0.00 60 1011.7
20260506164028 52 63 4.0 11.0 0.00 0.00 0.00 59 1011.7
20260506163528 53 68 4.0 10.0 0.00 0.00 0.00 59 1011.6
20260506163033 53 67 4.0 13.0 0.00 0.00 0.00 58 1011.5
20260506162527 54 69 4.0 13.0 0.00 0.00 0.00 55 1011.5
20260506162028 54 156 1.0 7.0 0.00 0.00 0.00 53 1011.4
20260506161528 54 31 2.0 8.0 0.00 0.00 0.00 53 1011.4
20260506161027 54 47 1.0 6.0 0.00 0.00 0.00 52 1011.3
20260506160526 54 67 1.0 4.0 0.00 0.00 0.00 52 1011.4
20260506160028 54 52 0.0 8.0 0.00 0.00 0.00 54 1011.4
20260506155527 54 355 3.0 8.0 0.00 0.00 0.00 52 1011.5
20260506155025 54 71 1.0 6.0 0.00 0.00 0.00 53 1011.5
20260506154526 54 194 1.0 9.0 0.00 0.00 0.00 55 1011.5
20260506154027 54 104 0.0 7.0 0.00 0.00 0.00 56 1011.5
20260506153526 53 92 1.0 7.0 0.00 0.00 0.00 55 1011.6
20260506153026 53 64 1.0 6.0 0.00 0.00 0.00 57 1011.7
20260506152524 53 46 2.0 6.0 0.00 0.00 0.00 57 1011.7
20260506152024 53 82 2.0 8.0 0.00 0.00 0.00 59 1011.6
20260506151524 53 48 2.0 8.0 0.00 0.00 0.00 58 1011.7
20260506151024 53 88 3.0 8.0 0.00 0.00 0.00 59 1011.7
20260506150524 53 69 2.0 11.0 0.00 0.00 0.00 59 1011.7
20260506150024 53 65 2.0 12.0 0.00 0.00 0.00 58 1011.7
20260506145526 53 80 5.0 12.0 0.00 0.00 0.00 58 1011.7
20260506145024 54 52 2.0 8.0 0.00 0.00 0.00 58 1011.8
20260506144523 54 93 1.0 8.0 0.00 0.00 0.00 58 1011.7
20260506144026 54 92 0.0 9.0 0.00 0.00 0.00 57 1011.8
20260506143524 54 38 1.0 6.0 0.00 0.00 0.00 56 1011.7
20260506143027 54 109 0.0 9.0 0.00 0.00 0.00 56 1011.7
20260506142522 54 44 2.0 9.0 0.00 0.00 0.00 56 1011.7
20260506142022 53 66 1.0 10.0 0.00 0.00 0.00 58 1011.7
20260506141522 53 67 4.0 10.0 0.00 0.00 0.00 58 1011.8
20260506141022 53 38 1.0 6.0 0.00 0.00 0.00 58 1011.7
20260506140523 54 200 1.0 7.0 0.00 0.00 0.00 57 1011.8
20260506140023 54 76 2.0 7.0 0.00 0.00 0.00 57 1011.8
20260506135523 54 46 3.0 6.0 0.00 0.00 0.00 58 1011.7
20260506135023 54 147 1.0 5.0 0.00 0.00 0.00 59 1011.7
20260506134523 54 265 0.0 6.0 0.00 0.00 0.00 57 1011.7
20260506134123 54 310 1.0 9.0 0.00 0.00 0.00 58 1011.8
20260506133522 53 86 1.0 9.0 0.00 0.00 0.00 61 1011.8
20260506133023 53 71 2.0 9.0 0.00 0.00 0.00 61 1011.9
20260506132520 53 44 2.0 10.0 0.00 0.00 0.00 59 1011.9
20260506132024 53 30 2.0 11.0 0.00 0.00 0.00 58 1011.9
20260506131520 53 26 0.0 12.0 0.00 0.00 0.00 59 1011.8
20260506131020 54 85 3.0 12.0 0.00 0.00 0.00 57 1011.8
20260506130521 54 49 1.0 6.0 0.00 0.00 0.00 59 1011.8
20260506130022 54 248 0.0 7.0 0.00 0.00 0.00 57 1011.8
20260506125520 54 91 2.0 10.0 0.00 0.00 0.00 55 1011.9
20260506125019 55 49 1.0 10.0 0.00 0.00 0.00 58 1011.9
20260506124519 54 199 1.0 11.0 0.00 0.00 0.00 56 1011.8
20260506124017 54 67 3.0 11.0 0.00 0.00 0.00 55 1011.9
20260506123517 54 55 3.0 12.0 0.00 0.00 0.00 54 1011.9